Location: Unspecified
(52.4292°N, 19.3359°E)
Time: 22:59:23
(UTC+02:00)

SR - Pass Details

Date: 27 May 2024
Orbit: 580 x 858 km, 66.7° (Epoch: 12 June)

Event Time Altitude Azimuth Distance (km) Brightness Sun altitude
Rises 23:22:43 0° 319° (NW) 2,946 ? -14.2°
Reaches altitude 10° 23:25:33 10° 336° (NNW) 1,992 ? -14.3°
Maximum altitude 23:28:55 21° 26° (NNE) 1,382 ? -14.5°
Drops below altitude 10° 23:32:11 10° 75° (ENE) 1,918 ? -14.6°
Sets 23:34:51 0° 93° (E) 2,803 ? -14.7°
